Time,TemperatureF,DewpointF,PressureIn,WindDirection,WindDirectionDegrees,WindSpeedMPH,WindSpeedGustMPH,Humidity,HourlyPrecipIn,Conditions,Clouds,dailyrainin,SolarRadiationWatts/m^2,SoftwareType,DateUTC
2013-03-05 00:00:00,29.0,15.0,-100.00,East,90,5.0,-999.0,55,-99.99,,,-99.99,0.000000,,2013-03-05 05:00:00,
2013-03-05 00:42:00,29.0,15.0,-100.00,East,90,5.0,-999.0,55,-99.99,,,-99.99,0.000000,,2013-03-05 05:42:00,
2013-03-05 00:52:00,29.0,15.0,-100.00,East,90,5.0,-999.0,55,-99.99,,,-99.99,0.000000,,2013-03-05 05:52:00,
2013-03-05 01:00:00,29.0,16.0,-100.00,East,90,5.0,-999.0,57,-99.99,,,-99.99,0.000000,,2013-03-05 06:00:00,
2013-03-05 01:32:00,29.0,16.0,-100.00,East,90,5.0,-999.0,57,-99.99,,,-99.99,0.000000,,2013-03-05 06:32:00,
2013-03-05 01:42:00,29.0,16.0,-100.00,East,90,5.0,-999.0,57,-99.99,,,-99.99,0.000000,,2013-03-05 06:42:00,
2013-03-05 01:52:00,29.0,16.0,-100.00,East,90,5.0,-999.0,57,-99.99,,,-99.99,0.000000,,2013-03-05 06:52:00,
2013-03-05 02:00:00,28.0,16.0,-100.00,East,90,6.0,-999.0,59,-99.99,,,-99.99,0.000000,,2013-03-05 07:00:00,
2013-03-05 02:32:00,28.0,16.0,-100.00,East,90,6.0,-999.0,59,-99.99,,,-99.99,0.000000,,2013-03-05 07:32:00,
2013-03-05 02:42:00,28.0,16.0,-100.00,East,90,6.0,-999.0,59,-99.99,,,-99.99,0.000000,,2013-03-05 07:42:00,
2013-03-05 02:52:00,28.0,16.0,-100.00,East,90,6.0,-999.0,59,-99.99,,,-99.99,0.000000,,2013-03-05 07:52:00,
2013-03-05 03:00:00,29.0,17.0,-100.00,East,90,6.0,-999.0,60,-99.99,,,-99.99,0.000000,,2013-03-05 08:00:00,
2013-03-05 03:42:00,29.0,17.0,-100.00,East,90,6.0,-999.0,60,-99.99,,,-99.99,0.000000,,2013-03-05 08:42:00,
2013-03-05 03:52:00,29.0,17.0,-100.00,East,90,6.0,-999.0,60,-99.99,,,-99.99,0.000000,,2013-03-05 08:52:00,
2013-03-05 04:00:00,29.0,17.0,-100.00,East,90,8.0,-999.0,62,-99.99,,,-99.99,0.000000,,2013-03-05 09:00:00,
2013-03-05 04:43:00,29.0,17.0,-100.00,East,90,8.0,-999.0,62,-99.99,,,-99.99,0.000000,,2013-03-05 09:43:00,
2013-03-05 04:52:00,29.0,17.0,-100.00,East,90,8.0,-999.0,62,-99.99,,,-99.99,0.000000,,2013-03-05 09:52:00,
2013-03-05 05:00:00,28.0,17.0,-100.00,East,90,8.0,-999.0,62,-99.99,,,-99.99,0.000000,,2013-03-05 10:00:00,
2013-03-05 05:42:00,28.0,17.0,-100.00,East,90,8.0,-999.0,62,-99.99,,,-99.99,0.000000,,2013-03-05 10:42:00,
2013-03-05 05:52:00,28.0,17.0,-100.00,East,90,8.0,-999.0,62,-99.99,,,-99.99,0.000000,,2013-03-05 10:52:00,
2013-03-05 06:00:00,28.0,17.0,-100.00,East,90,8.0,-999.0,62,-99.99,,,-99.99,0.000000,,2013-03-05 11:00:00,
2013-03-05 06:42:00,28.0,17.0,-100.00,East,90,8.0,-999.0,62,-99.99,,,-99.99,0.000000,,2013-03-05 11:42:00,
2013-03-05 06:52:00,28.0,17.0,-100.00,East,90,8.0,-999.0,62,-99.99,,,-99.99,0.000000,,2013-03-05 11:52:00,
2013-03-05 07:00:00,28.0,17.0,-100.00,East,90,9.0,-999.0,63,-99.99,,,-99.99,0.000000,,2013-03-05 12:00:00,
2013-03-05 07:42:00,28.0,17.0,-100.00,East,90,9.0,-999.0,63,-99.99,,,-99.99,0.000000,,2013-03-05 12:42:00,
2013-03-05 07:53:00,28.0,17.0,-100.00,East,90,9.0,-999.0,63,-99.99,,,-99.99,0.000000,,2013-03-05 12:53:00,
2013-03-05 08:00:00,28.0,17.0,-100.00,East,90,10.0,-999.0,62,-99.99,,,-99.99,23.200001,,2013-03-05 13:00:00,
2013-03-05 08:42:00,28.0,17.0,-100.00,East,90,10.0,-999.0,62,-99.99,,,-99.99,23.200001,,2013-03-05 13:42:00,
2013-03-05 08:52:00,28.0,17.0,-100.00,East,90,10.0,-999.0,62,-99.99,,,-99.99,23.200001,,2013-03-05 13:52:00,
2013-03-05 09:00:00,28.0,17.0,-100.00,East,90,11.0,-999.0,63,-99.99,,,-99.99,80.040001,,2013-03-05 14:00:00,
2013-03-05 09:42:00,28.0,17.0,-100.00,East,90,11.0,-999.0,63,-99.99,,,-99.99,80.040001,,2013-03-05 14:42:00,
2013-03-05 09:52:00,28.0,17.0,-100.00,East,90,11.0,-999.0,63,-99.99,,,-99.99,80.040001,,2013-03-05 14:52:00,
2013-03-05 10:00:00,28.0,17.0,-100.00,East,90,12.0,-999.0,65,-99.99,,,-99.99,73.080002,,2013-03-05 15:00:00,
2013-03-05 10:42:00,28.0,17.0,-100.00,East,90,12.0,-999.0,65,-99.99,,,-99.99,73.080002,,2013-03-05 15:42:00,
2013-03-05 10:52:00,28.0,17.0,-100.00,East,90,12.0,-999.0,65,-99.99,,,-99.99,73.080002,,2013-03-05 15:52:00,
2013-03-05 11:00:00,28.0,18.0,-100.00,East,90,12.0,-999.0,65,-99.99,,,-99.99,128.759995,,2013-03-05 16:00:00,
2013-03-05 11:32:00,28.0,18.0,-100.00,East,90,12.0,-999.0,65,-99.99,,,-99.99,128.759995,,2013-03-05 16:32:00,
2013-03-05 11:42:00,28.0,18.0,-100.00,East,90,12.0,-999.0,65,-99.99,,,-99.99,128.759995,,2013-03-05 16:42:00,
2013-03-05 11:52:00,28.0,18.0,-100.00,East,90,12.0,-999.0,65,-99.99,,,-99.99,128.759995,,2013-03-05 16:52:00,
2013-03-05 12:00:00,27.0,19.0,-100.00,East,90,11.0,-999.0,70,-99.99,,,-99.99,150.800003,,2013-03-05 17:00:00,
2013-03-05 12:42:00,27.0,19.0,-100.00,East,90,11.0,-999.0,70,-99.99,,,-99.99,150.800003,,2013-03-05 17:42:00,
2013-03-05 12:52:00,27.0,19.0,-100.00,East,90,11.0,-999.0,70,-99.99,,,-99.99,150.800003,,2013-03-05 17:52:00,
2013-03-05 13:00:00,27.0,20.0,-100.00,East,90,11.0,-999.0,73,-99.99,,,-99.99,211.119995,,2013-03-05 18:00:00,
2013-03-05 13:42:00,27.0,20.0,-100.00,East,90,11.0,-999.0,73,-99.99,,,-99.99,211.119995,,2013-03-05 18:42:00,
2013-03-05 13:53:00,27.0,20.0,-100.00,East,90,11.0,-999.0,73,-99.99,,,-99.99,211.119995,,2013-03-05 18:53:00,
2013-03-05 14:00:00,29.0,19.0,-100.00,East,90,12.0,-999.0,65,-99.99,,,-99.99,218.080002,,2013-03-05 19:00:00,
2013-03-05 14:42:00,29.0,19.0,-100.00,East,90,12.0,-999.0,65,-99.99,,,-99.99,218.080002,,2013-03-05 19:42:00,
2013-03-05 14:52:00,29.0,19.0,-100.00,East,90,12.0,-999.0,65,-99.99,,,-99.99,218.080002,,2013-03-05 19:52:00,
2013-03-05 15:00:00,29.0,20.0,-100.00,ENE,67,11.0,-999.0,70,-99.99,,,-99.99,133.399994,,2013-03-05 20:00:00,
2013-03-05 15:42:00,29.0,20.0,-100.00,ENE,67,11.0,-999.0,70,-99.99,,,-99.99,133.399994,,2013-03-05 20:42:00,
2013-03-05 15:52:00,29.0,20.0,-100.00,ENE,67,11.0,-999.0,70,-99.99,,,-99.99,133.399994,,2013-03-05 20:52:00,
2013-03-05 16:00:00,29.0,20.0,-100.00,ENE,67,10.0,-999.0,70,-99.99,,,-99.99,83.519997,,2013-03-05 21:00:00,
2013-03-05 16:42:00,29.0,20.0,-100.00,ENE,67,10.0,-999.0,70,-99.99,,,-99.99,83.519997,,2013-03-05 21:42:00,
2013-03-05 16:52:00,29.0,20.0,-100.00,ENE,67,10.0,-999.0,70,-99.99,,,-99.99,83.519997,,2013-03-05 21:52:00,
2013-03-05 17:00:00,29.0,22.0,-100.00,ENE,67,8.0,-999.0,75,-99.99,,,-99.99,64.959999,,2013-03-05 22:00:00,
2013-03-05 17:42:00,29.0,22.0,-100.00,ENE,67,8.0,-999.0,75,-99.99,,,-99.99,64.959999,,2013-03-05 22:42:00,
2013-03-05 17:52:00,29.0,22.0,-100.00,ENE,67,8.0,-999.0,75,-99.99,,,-99.99,64.959999,,2013-03-05 22:52:00,
2013-03-05 18:00:00,28.0,25.0,-100.00,NE,45,7.0,-999.0,87,-99.99,,,-99.99,19.719999,,2013-03-05 23:00:00,
2013-03-05 18:42:00,28.0,25.0,-100.00,NE,45,7.0,-999.0,87,-99.99,,,-99.99,19.719999,,2013-03-05 23:42:00,
2013-03-05 18:53:00,28.0,25.0,-100.00,NE,45,7.0,-999.0,87,-99.99,,,-99.99,19.719999,,2013-03-05 23:53:00,
2013-03-05 19:00:00,28.0,26.0,-100.00,NNE,22,9.0,-999.0,91,-99.99,,,-99.99,3.480000,,2013-03-06 00:00:00,
2013-03-05 19:32:00,28.0,26.0,-100.00,NNE,22,9.0,-999.0,91,-99.99,,,-99.99,3.480000,,2013-03-06 00:32:00,
2013-03-05 19:42:00,28.0,26.0,-100.00,NNE,22,9.0,-999.0,91,-99.99,,,-99.99,3.480000,,2013-03-06 00:42:00,
2013-03-05 19:52:00,28.0,26.0,-100.00,NNE,22,9.0,-999.0,91,-99.99,,,-99.99,3.480000,,2013-03-06 00:52:00,
2013-03-05 20:00:00,27.0,25.0,-100.00,NNE,22,12.0,-999.0,91,-99.99,,,-99.99,0.000000,,2013-03-06 01:00:00,
2013-03-05 20:42:00,27.0,25.0,-100.00,NNE,22,12.0,-999.0,91,-99.99,,,-99.99,0.000000,,2013-03-06 01:42:00,
2013-03-05 20:52:00,27.0,25.0,-100.00,NNE,22,12.0,-999.0,91,-99.99,,,-99.99,0.000000,,2013-03-06 01:52:00,
2013-03-05 21:00:00,27.0,25.0,-100.00,NNE,22,12.0,-999.0,91,-99.99,,,-99.99,0.000000,,2013-03-06 02:00:00,
2013-03-05 21:42:00,27.0,25.0,-100.00,NNE,22,12.0,-999.0,91,-99.99,,,-99.99,0.000000,,2013-03-06 02:42:00,
2013-03-05 21:52:00,27.0,25.0,-100.00,NNE,22,12.0,-999.0,91,-99.99,,,-99.99,0.000000,,2013-03-06 02:52:00,
2013-03-05 22:00:00,27.0,25.0,-100.00,NNE,22,12.0,-999.0,92,-99.99,,,-99.99,0.000000,,2013-03-06 03:00:00,
2013-03-05 22:42:00,27.0,25.0,-100.00,NNE,22,12.0,-999.0,92,-99.99,,,-99.99,0.000000,,2013-03-06 03:42:00,
2013-03-05 22:52:00,27.0,25.0,-100.00,NNE,22,12.0,-999.0,92,-99.99,,,-99.99,0.000000,,2013-03-06 03:52:00,
2013-03-05 23:00:00,26.0,23.0,-100.00,NNE,22,13.0,-999.0,88,-99.99,,,-99.99,0.000000,,2013-03-06 04:00:00,
2013-03-05 23:42:00,26.0,23.0,-100.00,NNE,22,13.0,-999.0,88,-99.99,,,-99.99,0.000000,,2013-03-06 04:42:00,
2013-03-05 23:52:00,26.0,23.0,-100.00,NNE,22,13.0,-999.0,88,-99.99,,,-99.99,0.000000,,2013-03-06 04:52:00,